TUI78C LTBS-EDDM

Flight info

Callsign TUI78C
Flight time N/A
Altitude 34000
Route KEKIK UT476 YOYYO UG80 IMR UN127 RIKSO DCT DISOR DCT LONTA UL608 DOLEV DCT VAMET DCT MORED DCT REDBU Q112 NAPSA NAPSA4A
Aircraft B738/M-SDE2E3FGHIRWXY/LB1

Departure

Time 2026-04-29 16:58
Airport Dalaman International Airport (LTBS)

Arrival

Time N/A
Airport Munich Airport (EDDM)
Time Latitude Longitude Altitude Speed Heading
2026-04-29 16:01 36.72112 28.79008 11 ft 0 kts 285°
2026-04-29 16:45 36.72110 28.79020 11 ft 4 kts 282°
2026-04-29 16:45 36.72107 28.79053 11 ft 4 kts 263°
2026-04-29 16:45 36.72115 28.79083 15 ft 4 kts 225°
2026-04-29 16:46 36.72126 28.79093 13 ft 0 kts 194°
2026-04-29 16:51 36.72104 28.79086 12 ft 5 kts 194°
2026-04-29 16:51 36.72071 28.79075 11 ft 5 kts 195°
2026-04-29 16:52 36.72032 28.79062 11 ft 8 kts 195°
2026-04-29 16:52 36.71957 28.79037 11 ft 12 kts 195°
2026-04-29 16:52 36.71896 28.79078 13 ft 12 kts 108°
2026-04-29 16:52 36.71875 28.79176 11 ft 12 kts 96°
2026-04-29 16:53 36.71944 28.79250 11 ft 20 kts 17°
2026-04-29 16:53 36.72077 28.79296 11 ft 20 kts 16°
2026-04-29 16:53 36.72218 28.79345 11 ft 23 kts 16°
2026-04-29 16:53 36.72366 28.79394 11 ft 22 kts 15°
2026-04-29 16:54 36.72511 28.79442 11 ft 18 kts 15°
2026-04-29 16:54 36.72621 28.79489 11 ft 14 kts 34°
2026-04-29 16:54 36.72642 28.79549 11 ft 0 kts 99°
2026-04-29 16:56 36.72639 28.79563 11 ft 4 kts 103°
2026-04-29 16:56 36.72621 28.79616 11 ft 10 kts 123°
2026-04-29 16:56 36.72568 28.79667 11 ft 10 kts 171°
2026-04-29 16:57 36.72501 28.79654 11 ft 10 kts 195°
2026-04-29 16:57 36.72411 28.79624 11 ft 32 kts 195°
2026-04-29 16:57 36.71960 28.79470 11 ft 101 kts 195°
2026-04-29 16:57 36.71084 28.79170 15 ft 158 kts 197°
2026-04-29 16:58 36.69983 28.78768 512 ft 168 kts 196°
2026-04-29 16:58 36.68815 28.78383 1190 ft 178 kts 194°
2026-04-29 16:58 36.67607 28.78016 1953 ft 178 kts 194°
2026-04-29 16:58 36.66401 28.77685 2727 ft 178 kts 193°
2026-04-29 16:59 36.65168 28.77366 3341 ft 185 kts 193°
2026-04-29 16:59 36.63862 28.76937 3626 ft 209 kts 202°
2026-04-29 16:59 36.62706 28.75774 3783 ft 227 kts 241°
2026-04-29 16:59 36.62376 28.73833 4069 ft 239 kts 279°
2026-04-29 17:00 36.62819 28.71813 4587 ft 249 kts 288°
2026-04-29 17:00 36.63343 28.69649 5148 ft 267 kts 287°
2026-04-29 17:00 36.63863 28.67406 6061 ft 273 kts 286°
2026-04-29 17:00 36.64378 28.65114 7000 ft 276 kts 287°
2026-04-29 17:01 36.64893 28.62793 7917 ft 280 kts 285°
2026-04-29 17:01 36.65520 28.60482 8789 ft 286 kts 300°
2026-04-29 17:01 36.66369 28.59162 9380 ft 288 kts 318°
2026-04-29 17:01 36.67057 28.58437 9794 ft 290 kts 321°
2026-04-29 17:02 36.68666 28.56864 10486 ft 301 kts 321°
2026-04-29 17:02 36.70385 28.55180 10722 ft 328 kts 321°
2026-04-29 17:02 36.72242 28.53345 10974 ft 351 kts 321°
2026-04-29 17:02 36.74179 28.51421 11643 ft 359 kts 320°
2026-04-29 17:03 36.76124 28.49481 12559 ft 359 kts 320°
2026-04-29 17:03 36.78130 28.47660 13347 ft 364 kts 331°
2026-04-29 17:03 36.80564 28.46585 14113 ft 369 kts 343°
2026-04-29 17:03 36.83052 28.45739 14826 ft 372 kts 343°
2026-04-29 17:04 36.85530 28.44881 15496 ft 376 kts 342°
2026-04-29 17:04 36.88055 28.43988 16156 ft 379 kts 342°
2026-04-29 17:04 36.90604 28.43071 16787 ft 383 kts 342°
2026-04-29 17:04 36.93174 28.42139 17439 ft 386 kts 342°
2026-04-29 17:05 36.95766 28.41195 18084 ft 389 kts 342°
2026-04-29 17:05 36.98373 28.40232 18622 ft 392 kts 340°
2026-04-29 17:05 37.00873 28.38854 19038 ft 396 kts 328°
2026-04-29 17:05 37.03105 28.36825 19513 ft 397 kts 319°
2026-04-29 17:06 37.05225 28.34595 19987 ft 400 kts 319°
2026-04-29 17:06 37.07360 28.32342 20446 ft 402 kts 319°
2026-04-29 17:06 37.09508 28.30083 20903 ft 405 kts 319°
2026-04-29 17:06 37.11679 28.27808 21333 ft 408 kts 319°
2026-04-29 17:07 37.13864 28.25527 21755 ft 411 kts 319°
2026-04-29 17:07 37.15324 28.24008 22024 ft 413 kts 319°
2026-04-29 17:07 37.18292 28.20922 22598 ft 416 kts 319°
2026-04-29 17:07 37.20501 28.18626 23007 ft 418 kts 319°
2026-04-29 17:08 37.22749 28.16288 23423 ft 421 kts 319°
2026-04-29 17:08 37.25005 28.13941 23802 ft 423 kts 319°
2026-04-29 17:08 37.27279 28.11574 24158 ft 424 kts 319°
2026-04-29 17:08 37.29562 28.09195 24464 ft 427 kts 319°
2026-04-29 17:09 37.31858 28.06800 24793 ft 429 kts 319°
2026-04-29 17:09 37.34163 28.04394 25161 ft 430 kts 319°
2026-04-29 17:09 37.36437 28.02019 25479 ft 431 kts 319°
2026-04-29 17:09 37.38752 27.99599 25770 ft 434 kts 319°
2026-04-29 17:10 37.41083 27.97159 26056 ft 436 kts 319°
2026-04-29 17:10 37.43419 27.94712 26380 ft 438 kts 319°
2026-04-29 17:10 37.45758 27.92261 26768 ft 437 kts 319°
2026-04-29 17:10 37.48096 27.89808 27071 ft 439 kts 319°
2026-04-29 17:11 37.50445 27.87342 27457 ft 438 kts 319°
2026-04-29 17:11 37.52789 27.84879 27738 ft 440 kts 319°
2026-04-29 17:11 37.55161 27.82383 27838 ft 446 kts 319°
2026-04-29 17:11 37.57537 27.79881 28188 ft 446 kts 319°
2026-04-29 17:12 37.59918 27.77373 28520 ft 446 kts 319°
2026-04-29 17:12 37.62295 27.74867 28906 ft 445 kts 319°
2026-04-29 17:12 37.64665 27.72366 29311 ft 443 kts 319°
2026-04-29 17:12 37.66223 27.70720 29698 ft 438 kts 319°
2026-04-29 17:13 37.69326 27.67441 30333 ft 434 kts 319°
2026-04-29 17:13 37.71644 27.64989 30544 ft 436 kts 319°
2026-04-29 17:13 37.73977 27.62517 30706 ft 439 kts 319°
2026-04-29 17:13 37.76250 27.60108 31004 ft 438 kts 319°
2026-04-29 17:14 37.78613 27.57601 31409 ft 434 kts 319°
2026-04-29 17:14 37.80926 27.55146 31769 ft 432 kts 319°
2026-04-29 17:14 37.83222 27.52706 32039 ft 432 kts 319°
2026-04-29 17:14 37.85522 27.50260 32295 ft 432 kts 319°
2026-04-29 17:15 37.87820 27.47814 32584 ft 431 kts 319°
2026-04-29 17:15 37.90110 27.45374 32884 ft 430 kts 319°
2026-04-29 17:15 37.92393 27.42940 33172 ft 429 kts 319°
2026-04-29 17:15 37.94666 27.40514 33494 ft 427 kts 319°
2026-04-29 17:16 37.96933 27.38093 33800 ft 425 kts 319°
2026-04-29 17:16 37.99196 27.35674 34008 ft 426 kts 319°
2026-04-29 17:16 38.03755 27.30793 34019 ft 429 kts 319°
2026-04-29 17:17 38.08284 27.25940 34002 ft 422 kts 319°
2026-04-29 17:17 38.12725 27.21171 34021 ft 421 kts 319°
2026-04-29 17:18 38.17192 27.16365 34024 ft 420 kts 319°
2026-04-29 17:18 38.21652 27.11559 34021 ft 420 kts 319°
2026-04-29 17:19 38.26106 27.06751 34025 ft 420 kts 319°
2026-04-29 17:19 38.30562 27.01935 34032 ft 421 kts 319°
2026-04-29 17:20 38.34259 26.97907 34033 ft 421 kts 318°
2026-04-29 17:20 38.38696 26.93006 34036 ft 422 kts 318°
2026-04-29 17:21 38.43138 26.88084 34030 ft 423 kts 318°
2026-04-29 17:21 38.47585 26.83156 34043 ft 423 kts 318°
2026-04-29 17:22 38.52040 26.78215 34046 ft 424 kts 318°
2026-04-29 17:22 38.56484 26.73278 34049 ft 424 kts 318°
2026-04-29 17:23 38.60929 26.68331 34059 ft 424 kts 318°
2026-04-29 17:23 38.65370 26.63380 34047 ft 423 kts 318°
2026-04-29 17:24 38.69805 26.58426 34047 ft 423 kts 317°
2026-04-29 17:24 38.74203 26.53506 34049 ft 422 kts 317°
2026-04-29 17:25 38.78614 26.48563 34051 ft 421 kts 317°
2026-04-29 17:25 38.83012 26.43618 34052 ft 420 kts 316°
2026-04-29 17:26 38.86997 26.38234 34055 ft 419 kts 310°